Weather History for Doylestown, PA

Change the Weather History Date:

Friday, May 24, 2013

  Actual Average (KTTN) Record (KTTN)
Temperature  
Mean Temperature 54 °F 64 °F  
Max Temperature 64 °F 74 °F 94 °F (1910)
Min Temperature 44 °F 53 °F 38 °F (1963)
Degree Days  
Heating Degree Days 12 4  
Month to date heating degree days 148  
Since 1 July heating degree days 5116  
Cooling Degree Days 0 2  
Month to date cooling degree days 31  
Year to date cooling degree days 39  
Growing Degree Days 4 (Base 50)    
Moisture  
Dew Point 50 °F    
Average Humidity 89    
Maximum Humidity 100    
Minimum Humidity 68    
Precipitation  
Precipitation 0.34 in 0.18 in 2.57 in (1999)
Month to date precipitation 3.09  
Year to date precipitation 16.24  
Sea Level Pressure  
Sea Level Pressure 29.84 in    
Wind  
Wind Speed 5 mph (NW)    
Max Wind Speed 16 mph    
Max Gust Speed 29 mph    
Visibility 9 miles    
Events Rain    
T = Trace of Precipitation, MM = Missing Value Source: NWS Daily Summary

Daily Weather History Graph

Daily Weather History Graph

Search for Another Location

Airport:

Trip Planner

Search our weather history database for the weather conditions in past years. The results will help you decide how hot, cold, wet, or windy it might be!

Date:

Astronomy

May. 24, 2013 Rise Set
Actual Time 5:37 AM EDT 8:18 PM EDT
Civil Twilight 5:05 AM EDT 8:49 PM EDT
Nautical Twilight 4:25 AM EDT 9:29 PM EDT
Astronomical Twilight 3:40 AM EDT 10:14 PM EDT
Moon 7:57 PM EDT (5/24) 5:07 AM EDT (5/24)
Length of Visible Light 15h 44m
Length of Day
14h 41m
Full, 100% of the Moon is Illuminated
May 24
Full
May 25
Full
May 31
Last Quarter
Jun 8
New
Jun 16
First Quarter

Hourly Weather History & Observations

Time (EDT) Temp. Windchill Dew Point Humidity Pressure Visibility Wind Dir Wind Speed Gust Speed Precip Events Conditions
12:21 AM 60.8 °F - 60.8 °F 100% 29.76 in 10.0 mi Calm Calm - 0.02 in Rain Light Rain
12:54 AM 61.0 °F - 61.0 °F 100% 29.74 in 10.0 mi Calm Calm - 0.03 in Rain Light Rain
1:54 AM 60.1 °F - 60.1 °F 100% 29.72 in 8.0 mi Calm Calm - 0.00 in   Partly Cloudy
2:54 AM 60.1 °F - 60.1 °F 100% 29.72 in 8.0 mi Calm Calm - N/A   Clear
3:54 AM 60.1 °F - 60.1 °F 100% 29.71 in 10.0 mi Calm Calm - N/A   Scattered Clouds
4:54 AM 60.1 °F - 60.1 °F 100% 29.71 in 9.0 mi Calm Calm - N/A   Mostly Cloudy
5:54 AM 61.0 °F - 60.1 °F 97% 29.72 in 10.0 mi Calm Calm - N/A   Overcast
6:54 AM 61.0 °F - 61.0 °F 100% 29.74 in 10.0 mi Calm Calm - N/A   Partly Cloudy
7:22 AM 62.6 °F - 60.8 °F 94% 29.75 in 10.0 mi Calm Calm - N/A   Overcast
7:54 AM 63.0 °F - 62.1 °F 97% 29.74 in 10.0 mi Calm Calm - N/A   Overcast
8:31 AM 62.6 °F - 62.6 °F 100% 29.76 in 10.0 mi Calm Calm - N/A   Overcast
8:54 AM 63.0 °F - 62.1 °F 97% 29.75 in 10.0 mi Variable 4.6 mph - 0.00 in Rain Light Rain
9:05 AM 60.8 °F - 60.8 °F 100% 29.78 in 7.0 mi NNW 16.1 mph 23.0 mph 0.01 in Rain Light Rain
9:12 AM 55.4 °F - 55.4 °F 100% 29.78 in 7.0 mi NW 16.1 mph 23.0 mph 0.02 in Rain Light Rain
9:19 AM 53.6 °F - 53.6 °F 100% 29.79 in 7.0 mi NNW 16.1 mph 27.6 mph 0.02 in   Unknown
9:45 AM 51.8 °F - 50.0 °F 94% 29.81 in 2.5 mi NNW 15.0 mph 23.0 mph 0.14 in Rain Heavy Rain
9:54 AM 51.1 °F - 50.0 °F 96% 29.81 in 3.0 mi NNW 12.7 mph 21.9 mph 0.18 in Rain Rain
10:26 AM 50.0 °F - 48.2 °F 94% 29.82 in 10.0 mi NW 10.4 mph 16.1 mph 0.02 in   Overcast
10:54 AM 48.9 °F - 48.0 °F 97% 29.85 in 9.0 mi NW 11.5 mph 17.3 mph 0.03 in Rain Light Rain
11:36 AM 48.2 °F - 46.4 °F 93% 29.86 in 10.0 mi NW 9.2 mph 24.2 mph 0.03 in Rain Light Rain
11:54 AM 50.0 °F - 46.9 °F 89% 29.86 in 10.0 mi NNW 11.5 mph 21.9 mph 0.03 in   Overcast
12:54 PM 48.9 °F - 45.0 °F 86% 29.88 in 10.0 mi NW 10.4 mph 19.6 mph N/A   Overcast
1:02 PM 48.2 °F - 44.6 °F 87% 29.88 in 10.0 mi NW 12.7 mph 19.6 mph N/A   Overcast
1:54 PM 48.0 °F - 45.0 °F 89% 29.89 in 10.0 mi NNW 8.1 mph - 0.05 in Rain Light Rain
2:54 PM 48.9 °F - 45.0 °F 86% 29.89 in 10.0 mi NNW 13.8 mph 19.6 mph 0.02 in   Overcast
3:54 PM 48.0 °F - 42.1 °F 80% 29.91 in 10.0 mi NW 13.8 mph 23.0 mph 0.00 in Rain Light Rain
4:41 PM 50.0 °F - 42.8 °F 76% 29.91 in 10.0 mi NNW 9.2 mph 20.7 mph 0.00 in   Overcast
4:54 PM 48.9 °F - 39.9 °F 71% 29.93 in 10.0 mi NNW 11.5 mph 23.0 mph 0.00 in   Overcast
5:54 PM 48.9 °F - 39.0 °F 69% 29.93 in 10.0 mi NNW 9.2 mph 23.0 mph N/A   Overcast
6:54 PM 48.0 °F - 37.9 °F 68% 29.96 in 10.0 mi NW 16.1 mph 25.3 mph N/A   Overcast
7:54 PM 46.9 °F - 37.0 °F 68% 29.98 in 10.0 mi NNW 12.7 mph 28.8 mph N/A   Overcast
8:54 PM 46.0 °F 41.4 °F 37.0 °F 71% 29.99 in 10.0 mi NW 9.2 mph 23.0 mph N/A   Overcast
9:54 PM 45.0 °F 38.9 °F 37.0 °F 74% 30.02 in 10.0 mi NW 12.7 mph 21.9 mph N/A   Overcast
10:54 PM 44.1 °F 38.1 °F 37.0 °F 76% 30.02 in 10.0 mi NNW 11.5 mph 17.3 mph N/A   Overcast
11:54 PM 45.0 °F 40.1 °F 37.9 °F 76% 30.02 in 10.0 mi NW 9.2 mph 21.9 mph N/A   Overcast